This is the latest recevied weather packets stored in our database for station/object OK3MS-5. If no packets are shown the sender has not sent any weather packets the latest 10 day(s).
| Time | Temp. | Humidity | Pressure | Rain* | Wind** | Luminosity | Snow |
|---|---|---|---|---|---|---|---|
| 1777536904 | 6.67° C | 39% | 1031.1 hPa | 0 mm | - | 532 W/m² | - |
| 1777536605 | 7.22° C | 39% | 1031 hPa | 0 mm | - | 519 W/m² | - |
| 1777536304 | 7.22° C | 40% | 1031.2 hPa | 0 mm | - | 506 W/m² | - |
| 1777536006 | 6.67° C | 39% | 1031.2 hPa | 0 mm | - | 492 W/m² | - |
| 1777535707 | 6.67° C | 41% | 1031.5 hPa | 0 mm | - | 478 W/m² | - |
| 1777535403 | 6.11° C | 43% | 1031.3 hPa | 0 mm | - | 464 W/m² | - |
| 1777535104 | 5.56° C | 43% | 1031.5 hPa | 0 mm | - | 450 W/m² | - |
| 1777534806 | 5.56° C | 44% | 1031.6 hPa | 0 mm | - | 435 W/m² | - |
| 1777534505 | 5.56° C | 44% | 1031.6 hPa | 0 mm | - | 421 W/m² | - |
| 1777534204 | 6.11° C | 43% | 1031.4 hPa | 0 mm | - | 407 W/m² | - |
| 1777533910 | 5.56° C | 43% | 1031.7 hPa | 0 mm | - | 393 W/m² | - |
| 1777533603 | 5° C | 46% | 1031.8 hPa | 0 mm | - | 380 W/m² | - |
| 1777533304 | 5° C | 44% | 1031.6 hPa | 0 mm | - | 368 W/m² | - |
| 1777533005 | 5° C | 45% | 1031.7 hPa | 0 mm | - | 352 W/m² | - |
| 1777532704 | 5° C | 47% | 1031.8 hPa | 0 mm | - | 337 W/m² | - |
| 1777532410 | 4.44° C | 47% | 1031.8 hPa | 0 mm | - | 322 W/m² | - |
| 1777532104 | 5° C | 47% | 1031.7 hPa | 0 mm | - | 310 W/m² | - |
| 1777531804 | 5° C | 50% | 1031.7 hPa | 0 mm | - | 294 W/m² | - |
| 1777531509 | 4.44° C | 50% | 1031.8 hPa | 0 mm | - | 279 W/m² | - |
| 1777531202 | 3.89° C | 51% | 1032 hPa | 0 mm | - | 263 W/m² | - |
| 1777530911 | 3.33° C | 54% | 1032 hPa | 0 mm | - | 250 W/m² | - |
| 1777530605 | 4.44° C | 53% | 1032 hPa | 0 mm | - | 236 W/m² | - |
| 1777530306 | 3.89° C | 53% | 1031.9 hPa | 0 mm | - | 220 W/m² | - |
| 1777530004 | 3.33° C | 54% | 1032.1 hPa | 0 mm | - | 120 W/m² | - |
| 1777529710 | 2.78° C | 55% | 1032.1 hPa | 0 mm | - | 51 W/m² | - |
* Rain latest hour (hover to see other rain measurements)
** Current wind speed in m/s (hover to see current wind gust speed)